Espace membre
Imprimable
Challenges > Delhalle - Chimay, 16/04/2016, BEL - Jogging De La Principauté De Chimay
Liste des rapports > Delhalle - 14,3 km - Classement
Recherche: Page: [1]
79 Entrées
 
Les réclamations ne sont plus acceptées, les résultats sont considérés comme définitifs.
RangNrNomAgeIOCLigueEquipeRéelTempsTkmMoy.ScrPtsLocalité
1.17FDESILLE NICOLE49BEL1:06:111:06:144:38 12.9674873LA HULPE
2.749FLEROY VALERIE42BELATCC1:07:021:07:024:42 12.8084858LANEFFE
3.428FDUTRANNOIT VERONIQUE45BELJACO1:07:281:07:314:44 12.7193848HAVRE
4.97FLEROY FABIENNE42BELWACO1:09:511:09:554:54 12.27122805BERLOZ
5.859FKHARROUBI AWATEF44BELJCCS1:10:331:10:454:57 12.13139789GEDINNE
6.209FDE GREVE GEERTRUI41BELETCHIEVR1:10:531:10:584:58 12.09142784EREMBODEGEM
7.4772FLELONG SABINE42FRACAFCAF1:15:141:15:155:16 11.40202706FOURMIES
8.4971FROENIGS FABIENNE46BEL1:17:251:17:455:27 11.04244663
9.4477FPARAGE ODILE43BELJTRR1:17:411:17:595:28 11.00256655COUVIN
10.4208FBENBETKA TATIANA41BELJACO1:21:201:21:475:44 10.49324586CHIMAY
11.4222FPIERROT SABINE46BELLA TURE1:21:201:21:485:44 10.49326585ROBECHIES
12.4854FDORCIMONT CHANTAL49BELESMESM1:22:571:23:125:50 10.31341561
13.4941FDELITTE BENEDICTE49BELESMESM1:23:211:23:375:51 10.26348554
14.140FKOHL ANGELIQUE47BELHUY1:24:531:25:005:57 10.10368529HUY
15.847FARNOULD SYLVIE40BELRCNAMUR1:26:231:26:486:05 9.89406498YVOIR
16.468FDEMIN LIEVE49BELMYSTERE1:27:521:28:116:10 9.73432472BRUXELLES
17.987FMOHIMONT NATHALIE47BELRCNAMUR1:28:211:28:486:13 9.66445462COURRIERE
18.4841FCASTELEYN TAMARA46BELUAC1:28:501:29:096:14 9.63451455
19.191FVANDERAST CAROLINE40BELUSBWMYSTERE1:29:121:29:426:17 9.57454450BRAINE-L'ALLEUD
20.4451FSCHEYVEN GENEVIÈVE48BELRCNAMUR1:28:551:29:446:17 9.56455452BEEZ
21.4433FLENOIR VANESSA41BELJTRR1:29:391:30:066:18 9.52463442DOURBES
22.4459FDEMAIN CORINNE49BELLA THURE1:30:191:30:196:19 9.50468433
23.4135FSTERCKX FABIENNE48BEL1:30:361:31:006:22 9.43483424PONT DE LOUP
24.4921FFOSTROY SABINE48BEL1:30:311:31:116:23 9.41488423
25.4408FVANESCOTE INGRID44BELJCHSH1:31:331:31:586:26 9.33498408HAM-SUR-HEURE
26.4875FBROQUIN CHRISTELLE44FRA1:32:121:33:036:31 9.22514396WATIGNY
27.4928FDELCAMBRE DAPHNE45BEL1:33:111:34:086:35 9.11523382
28.4043FLEBRUN CATHERINE42BEL1:34:451:35:066:40 9.02537362THUILLIES
29.4070FRICHARD AUDREY42FRA1:36:021:36:156:44 8.91556342CHARLEVILLE MEZIERES
30.4126FPUISSANT VALERIE46BEL1:36:101:36:296:45 8.89563338NIVELLES
31.4869FMARLIER BEATRICE44BEL1:35:501:36:316:45 8.89564340
32.4922FWERREBROUCK MAHAUT47BEL1:36:071:36:526:47 8.86568336MONS
33.4235FFILIE ALEXANDRA43BELS'CASSENES RUNNERS1:36:101:36:546:47 8.86569335ECAUSSINNES
34.4073FVANDENBUSSCHE DAPHNÉ43BELZATAC CHARLEROI1:36:181:37:056:48 8.84573333LODELISNART
35.176FVERPLAETSE JOHANNA45BELCSFMYSTERE1:36:391:37:106:48 8.83578327FOREST
36.4917FVERHOEVEN GERALDINE43BEL1:36:291:37:296:49 8.80581327
37.4047FAMICI ISABELLA47ITAUAC1:38:371:38:576:56 8.67600300FARCIENNES
38.4206FSAUBAIN STEPHANIE42BEL1:39:221:39:226:57 8.63609289FONTAINE L'EVEQUE
39.4152FCUVELIER STÉPHANIE41BELACCOACCO1:40:351:41:047:05 8.49632269PETIGNY
40.4792FGARDIN HELENE49BEL1:41:021:41:247:06 8.46633265
41.4479FBRASSEUR VALERIE48BELESM1:42:051:42:217:10 8.38644251MONCEAU SUR SAMBRE
42.4046FSIERRA PURITA47ESP1:42:191:42:397:11 8.36647248CHATELET
43.4049FGILLAIN BÉNÉDICTE43BELJACO1:43:301:44:327:19 8.21666230CHIMAY
44.4441FLEFÈVRE ISABELLE40FRAJAMES1:44:001:44:527:20 8.18669224GEMBLOUX
45.684FDESTRES LINDA42BELARCH1:44:151:45:207:22 8.15674220MIECRET
46.186FHILLEN HILDE48BELAVN1:44:401:45:297:23 8.14676215MEER
47.4233FPOLLET MARTINE44BELS'CASSENES RUNNERS1:45:001:45:427:24 8.12678212ECAUSSINNES
48.4175FVROLIJK - DE VRIES PAULA48NLD1:45:151:46:237:27 8.07686206HEEMSKERK
49.4416FPIETTON LAURENCE46BELESM1:46:121:46:517:29 8.03689197MARCINELLE
50.4948FBRIQUET GERALDINE43BEL1:47:081:47:087:30 8.01691188
51.4961FLEPAGE HÉLÈNE44BELESM1:46:341:47:087:30 8.01692193JONCRET
52.4425FDUSSART DELPHINE43BELJACO1:46:161:47:217:31 7.99694194CHIMAY
53.4248FGANY PASCALE49BELJACO1:46:161:47:217:31 7.996951946596
54.4247FCOLLET CHRISTELLE42BELJACO1:46:161:47:217:31 7.99696194BRULY-DE-PESCHE
55.4245FOTTE MARIE-INÈS48BELJCHSHJCHSH1:47:201:47:497:33 7.96703182HAM-SUR-HEURE / NALINNES
56.4403FDE GRANDE DOMINIQUE49BELJACO1:47:121:48:187:35 7.92709181VAULX
57.4786FCOLLART MARCELLE43BEL1:47:501:48:527:37 7.88713174
58.4162FGEORGE VALÉRIE48BELJACO1:49:081:49:197:39 7.85724158BAILEUX
59.760FMASURE BETTY41BELUSBWMYSTERE1:48:211:49:207:39 7.85725164WATERLOO
60.4985FVANTOURNHOUDT CAROLINE42BELCOUREUR DE JUPONS1:49:381:49:387:40 7.83727153
61.4988FSAUTIERE MURIEL45BEL1:49:171:49:397:41 7.83728155
62.893FVERGISON ANNE47BELUSBWMYSTERE1:48:501:49:497:41 7.81729159WATERLOO
63.4431FDELBRASSINNE CLAUDE-ANNE46BELESM1:49:201:49:557:42 7.81730154GILLY
64.4429FCAWOY VALÉRIE46BEL1:49:251:50:007:42 7.80733152HAM SUR HEURE
65.4178FZONJEE NANDA49NLDAVC1:50:371:50:377:45 7.76742139CASTRICUM
66.4887FMOTTART CATHY41BEL1:49:461:50:527:46 7.74743145
67.7FHENNERESSE ISABELLE46BELJOGGANS1:50:451:51:547:50 7.67753133GEDINNE
68.4112FDABEE ANNE-FRANCE40BELRCNAMUR1:52:461:52:467:54 7.61760114PROFONDEVILLE
69.618FDARDENNE CAROLE43BELSPTWAVRE1:53:391:54:228:00 7.50771103MONT-SAINT-GUIBERT
70.4774FCERINI CARLA49BELESM1:53:291:54:268:01 7.50772103
71.450FPIRLOT ANNICK45BELUSBWUSBW1:54:251:55:248:05 7.4477695BRAINE-L'ALLEUD
72.4950FMARTIN-FIORE SYLVIE48FRACSCV HIRSON1:55:491:55:568:07 7.4077883HIRSON
73.4067FCZAJKOWSKI CATHERINE47BELZATAC1:56:441:56:448:10 7.3578174MONT SUR MARCHIENNE
74.4122FDEWULF ERIKA45BELRIWA1:58:341:59:308:22 7.1878858LASNE
75.4420FDUPONT NATHALIE46BEL2:04:232:04:238:42 6.9079313MONTIGNY-LE-TILLEUL
76.4421FDUPONT SYLVIE46BEL2:04:052:04:278:43 6.8979614FONTAINE-L'EVEQUE
77.4755FLIEVENS CHRISTY41BELKASTEEL2:06:332:07:468:57 6.728025
78.222FPEREIRA OLINDA44BELIRUN@WATERLOO2:14:532:15:009:27 6.368064BRAINE-L'ALLEUD
79.245FGENDARME STEPHANIE40BELJCCS2:22:502:23:5110:04 5.968121GEDINNE
DNF: abandon; DSQ: disqualifié; Vitesse en km/h
Page: [1]